TimeEST,TemperatureF,Dew PointF,Humidity,Sea Level PressureIn,VisibilityMPH,Wind Direction,Wind SpeedMPH,Gust SpeedMPH,PrecipitationIn,Events,Conditions,WindDirDegrees,DateUTC
12:53 AM,41.0,39.9,96,29.97,0.8,ENE,3.5,-,0.00,,Mist,60,2012-12-08 05:53:00
1:53 AM,41.0,39.9,96,29.96,0.8,ENE,4.6,-,0.01,,Mist,60,2012-12-08 06:53:00
2:48 AM,41.0,39.2,93,29.94,0.2,ENE,3.5,-,N/A,Fog,Fog,60,2012-12-08 07:48:00
2:53 AM,41.0,39.9,96,29.94,0.5,ENE,3.5,-,N/A,Fog,Fog,60,2012-12-08 07:53:00
3:53 AM,41.0,39.9,96,29.93,0.8,NE,3.5,-,N/A,,Mist,40,2012-12-08 08:53:00
4:53 AM,41.0,39.9,96,29.93,0.5,Calm,Calm,-,N/A,Fog,Fog,0,2012-12-08 09:53:00
6:53 AM,42.1,39.9,92,29.93,0.2,Calm,Calm,-,N/A,Fog,Fog,0,2012-12-08 11:53:00
7:53 AM,42.1,41.0,96,29.93,0.2,Calm,Calm,-,N/A,Fog,Fog,0,2012-12-08 12:53:00
8:53 AM,43.0,42.1,97,29.93,0.2,Calm,Calm,-,N/A,Fog,Fog,0,2012-12-08 13:53:00
9:15 AM,42.8,42.8,100,29.93,0.5,Calm,Calm,-,N/A,Fog,Fog,0,2012-12-08 14:15:00
9:53 AM,43.0,42.1,97,29.94,1.2,West,3.5,-,N/A,,Overcast,270,2012-12-08 14:53:00
10:53 AM,44.1,42.1,93,29.94,2.0,West,5.8,-,N/A,,Overcast,280,2012-12-08 15:53:00
11:34 AM,44.6,42.8,93,29.92,1.8,WNW,4.6,-,N/A,,Overcast,290,2012-12-08 16:34:00
11:53 AM,45.0,43.0,93,29.91,1.8,SW,3.5,-,N/A,,Overcast,230,2012-12-08 16:53:00
12:53 PM,46.0,44.1,93,29.89,1.8,Calm,Calm,-,N/A,,Overcast,0,2012-12-08 17:53:00
1:53 PM,46.9,44.1,90,29.90,1.5,NW,3.5,-,N/A,,Overcast,310,2012-12-08 18:53:00
2:53 PM,48.0,44.1,86,29.91,1.5,Calm,Calm,-,N/A,,Overcast,0,2012-12-08 19:53:00
3:53 PM,48.0,45.0,89,29.91,1.5,Calm,Calm,-,N/A,,Overcast,0,2012-12-08 20:53:00
4:53 PM,48.0,45.0,89,29.91,2.0,ENE,3.5,-,N/A,,Overcast,60,2012-12-08 21:53:00
5:34 PM,46.4,44.6,93,29.92,1.8,Calm,Calm,-,N/A,,Overcast,0,2012-12-08 22:34:00
5:53 PM,46.9,45.0,93,29.93,1.8,Calm,Calm,-,N/A,,Overcast,0,2012-12-08 22:53:00
6:53 PM,46.9,45.0,93,29.96,1.8,NW,5.8,-,N/A,,Overcast,320,2012-12-08 23:53:00
8:53 PM,46.9,45.0,93,29.99,1.2,Calm,Calm,-,0.00,Rain,Light Rain,0,2012-12-09 01:53:00
9:46 PM,46.4,44.6,93,29.98,0.8,East,3.5,-,0.00,,Overcast,80,2012-12-09 02:46:00
9:53 PM,46.9,45.0,93,30.00,0.5,Calm,Calm,-,0.00,Fog,Fog,0,2012-12-09 02:53:00
10:53 PM,46.9,45.0,93,30.02,0.5,Calm,Calm,-,N/A,Fog,Fog,0,2012-12-09 03:53:00
11:01 PM,46.4,44.6,93,30.01,0.2,Calm,Calm,-,N/A,Fog,Fog,0,2012-12-09 04:01:00
11:15 PM,46.4,44.6,93,30.01,0.5,North,3.5,-,N/A,Fog,Fog,10,2012-12-09 04:15:00
11:22 PM,46.4,44.6,93,30.02,0.2,Calm,Calm,-,N/A,Fog,Fog,0,2012-12-09 04:22:00
11:39 PM,46.4,44.6,93,30.03,0.2,Calm,Calm,-,N/A,Fog,Fog,0,2012-12-09 04:39:00
11:53 PM,46.9,45.0,93,30.02,0.2,Calm,Calm,-,N/A,Fog,Fog,0,2012-12-09 04:53:00